Location: Kaarina
(60.4167°N, 22.4167°E)
Time: 12:12:55
(UTC+03:00)

Cosmos 1378 Rocket - Pass Details

Date: 24 August 2019
Orbit: 602 x 626 km, 82.5° (Epoch: 17 September)

Event Time Altitude Azimuth Distance (km) Brightness Sun altitude
Rises 21:51:02 0° 344° (NNW) 2,904 7.9 -6.3°
Reaches altitude 10° 21:53:16 10° 342° (NNW) 1,997 7.1 -6.5°
Maximum altitude 21:57:39 69° 260° (W) 672 3.9 -6.9°
Drops below altitude 10° 22:02:03 10° 178° (S) 1,996 5.8 -7.4°
Sets 22:04:17 0° 176° (S) 2,901 6.6 -7.6°
